Simultaneous Nadir Overpasses (SNOs) Predictions

Prediction of SNOs between GOES-15 and TERRA Satellite Orbit:

Table of predicted SNOs for the next 14.0 days since TLE Epoch: 5/11/2015
Index Date Time (GOES-15) GOES-15 Lat,Lon TERRA Lat,Lon Distance(km) Time Diff (sec)
1 05/12/2015 07:16:35 0.09,-135.42 0.82,-131.99 390.23 80
2 05/12/2015 19:37:51 -0.09,-135.40 0.28,-137.15 199.19 80
3 05/14/2015 19:28:21 -0.09,-135.38 -0.32,-134.19 133.95 80
4 05/15/2015 07:49:46 0.09,-135.39 -0.77,-139.39 454.62 80
5 05/16/2015 19:16:12 -0.09,-135.35 -0.99,-131.25 466.59 80
6 05/17/2015 07:37:36 0.09,-135.37 -0.15,-136.44 122.13 80
7 05/19/2015 07:22:46 0.09,-135.33 0.47,-133.49 209.88 80
8 05/19/2015 19:44:02 -0.09,-135.30 0.62,-138.64 380.27 80
9 05/21/2015 19:31:52 -0.09,-135.26 -0.03,-135.70 48.79 80
10 05/23/2015 19:22:21 -0.10,-135.22 -0.63,-132.73 282.61 80
11 05/24/2015 07:43:45 0.10,-135.24 -0.50,-137.92 305.97 80




NCC Satellite Simultaneous Nadir Overpasses (SNOs) Prediction Service
